FW0780 Weather Reports


time (UTC)temp
C
wind
direction
speed
KPH
gust
KPH
rain 1hr
cm
rain 24hr
cm
rain mn
cm
humidity
%
barometer
mb
20260507001546 15 98 0.0 3.2 0.00 0.00 0.00 74 1005.8
20260507000044 15 139 0.0 3.2 0.00 0.00 0.00 75 1005.9
20260506234541 15 76 0.0 1.6 0.00 0.00 0.00 77 1006.0
20260506233046 16 76 0.0 1.6 0.00 0.00 0.00 76 1006.0
20260506231542 16 76 0.0 3.2 0.00 0.00 0.00 76 1006.0
20260506230039 15 94 1.6 3.2 0.00 0.00 0.00 77 1006.1
20260506224536 16 123 0.0 1.6 0.00 0.00 0.00 77 1006.0
20260506223035 16 123 0.0 1.6 0.00 0.00 0.00 76 1006.0
20260506221532 16 123 0.0 1.6 0.00 0.00 0.00 74 1006.0
20260506220029 17 123 0.0 1.6 0.00 0.00 0.00 72 1006.0
20260506214528 17 138 0.0 1.6 0.00 0.00 0.00 70 1005.9
20260506213027 17 138 0.0 1.6 0.00 0.00 0.00 68 1005.9
20260506211526 18 138 0.0 1.6 0.00 0.00 0.00 67 1006.0
20260506210028 18 138 0.0 3.2 0.00 0.00 0.00 66 1005.9
20260506204526 18 140 1.6 4.8 0.00 0.00 0.00 63 1005.8
20260506203024 19 117 1.6 4.8 0.00 0.00 0.00 61 1005.7
20260506201524 20 133 3.2 4.8 0.00 0.00 0.00 59 1005.6
20260506200024 20 141 1.6 3.2 0.00 0.00 0.00 57 1005.7
20260506194523 20 141 1.6 4.8 0.00 0.00 0.00 55 1005.7
20260506193022 21 145 1.6 4.8 0.00 0.00 0.00 54 1005.7
20260506191522 21 94 0.0 4.8 0.00 0.00 0.00 54 1005.4
20260506190021 21 90 1.6 4.8 0.00 0.00 0.00 53 1005.4
20260506184521 21 88 1.6 4.8 0.00 0.00 0.00 53 1005.3
20260506183020 21 92 1.6 6.4 0.00 0.00 0.00 52 1005.0
20260506180018 22 74 0.0 4.8 0.00 0.00 0.00 51 1004.8
20260506174518 22 107 0.0 4.8 0.00 0.00 0.00 50 1004.8
20260506173017 23 80 0.0 3.2 0.00 0.00 0.00 48 1004.8
20260506171520 23 130 1.6 6.4 0.00 0.00 0.00 48 1004.8
20260506170020 23 126 1.6 3.2 0.00 0.00 0.00 47 1004.8
20260506164516 23 87 0.0 4.8 0.00 0.00 0.00 46 1004.8
20260506163030 24 111 1.6 6.4 0.00 0.00 0.00 44 1004.8
20260506161513 24 122 3.2 20.9 0.00 0.00 0.00 43 1004.8
20260506160018 24 132 6.4 19.3 0.00 0.00 0.00 44 1005.0
20260506154509 24 149 4.8 27.4 0.00 0.00 0.00 45 1005.1
20260506153007 24 126 4.8 14.5 0.00 0.00 0.00 44 1005.2
20260506151506 25 93 4.8 20.9 0.00 0.00 0.00 41 1005.1
20260506150006 26 146 8.0 22.5 0.00 0.00 0.00 40 1005.1
20260506144506 26 135 11.3 22.5 0.00 0.00 0.00 40 1005.1
20260506143004 25 114 8.0 29.0 0.00 0.00 0.00 41 1005.1
20260506141504 25 141 6.4 27.4 0.00 0.00 0.00 42 1005.2
20260506140003 26 128 12.9 27.4 0.00 0.00 0.00 41 1005.1
20260506134502 26 132 4.8 24.1 0.00 0.00 0.00 40 1005.0
20260506133100 26 146 9.7 30.6 0.00 0.00 0.00 40 1005.0
20260506131601 26 130 12.9 33.8 0.00 0.00 0.00 41 1005.1
20260506130100 26 130 4.8 22.5 0.00 0.00 0.00 40 1005.1
20260506124556 26 141 9.7 22.5 0.00 0.00 0.00 40 1005.1
20260506123157 26 123 11.3 25.7 0.00 0.00 0.00 40 1005.1
20260506121555 26 156 16.1 30.6 0.00 0.00 0.00 39 1005.1
20260506120059 26 134 4.8 32.2 0.00 0.00 0.00 38 1005.1
20260506114604 26 142 14.5 27.4 0.00 0.00 0.00 37 1005.1
20260506113053 26 156 12.9 27.4 0.00 0.00 0.00 39 1005.1
20260506111550 25 142 6.4 24.1 0.00 0.00 0.00 41 1005.0
20260506110147 25 107 4.8 22.5 0.00 0.00 0.00 40 1005.2
20260506104547 25 119 12.9 27.4 0.00 0.00 0.00 40 1005.3
20260506103047 25 139 14.5 25.7 0.00 0.00 0.00 41 1005.4
20260506101545 25 117 3.2 30.6 0.00 0.00 0.00 41 1005.2
20260506100045 24 140 14.5 29.0 0.00 0.00 0.00 40 1005.4
20260506094607 23 123 9.7 27.4 0.00 0.00 0.00 41 1005.4
20260506093037 23 153 9.7 37.0 0.00 0.00 0.00 41 1005.5
20260506091534 23 132 11.3 27.4 0.00 0.00 0.00 43 1005.4
20260506090031 23 135 16.1 25.7 0.00 0.00 0.00 42 1005.3
20260506084529 22 139 17.7 25.7 0.00 0.00 0.00 43 1005.4
20260506083028 22 140 16.1 24.1 0.00 0.00 0.00 44 1005.3
20260506081526 22 157 14.5 32.2 0.00 0.00 0.00 43 1005.4
20260506073025 21 139 11.3 24.1 0.00 0.00 0.00 45 1005.2
20260506071529 21 150 14.5 33.8 0.00 0.00 0.00 45 1005.3
20260506061517 21 94 1.6 12.9 0.00 0.00 0.00 48 1005.1
20260506043048 13 144 0.0 1.6 0.00 0.00 0.00 63 1005.7
20260506041647 12 144 0.0 1.6 0.00 0.00 0.00 67 1005.8
20260506040058 12 139 0.0 3.2 0.00 0.00 0.00 68 1005.6
20260506034549 11 204 0.0 3.2 0.00 0.00 0.00 70 1005.7
20260506033044 11 142 0.0 1.6 0.00 0.00 0.00 70 1005.7
20260506031555 11 142 0.0 1.6 0.00 0.00 0.00 70 1005.8
20260506030043 11 142 0.0 1.6 0.00 0.00 0.00 70 1005.8
20260506024542 11 139 0.0 3.2 0.00 0.00 0.00 71 1005.9
20260506023041 11 132 0.0 3.2 0.00 0.00 0.00 72 1005.9
20260506021540 11 133 0.0 1.6 0.00 0.00 0.00 75 1005.9
20260506020040 11 130 0.0 1.6 0.00 0.00 0.00 77 1006.0
20260506014538 11 130 0.0 1.6 0.00 0.00 0.00 78 1005.9
20260506013037 11 130 0.0 1.6 0.00 0.00 0.00 78 1005.9
20260506011538 11 130 0.0 1.6 0.00 0.00 0.00 78 1005.9
20260506010041 11 130 0.0 1.6 0.00 0.00 0.00 77 1006.1
20260506004531 11 130 0.0 1.6 0.00 0.00 0.00 76 1006.0
20260506003029 12 130 0.0 1.6 0.00 0.00 0.00 74 1006.0